Weather History for Seward, AK

Change the Weather History Date:

Friday, August 8, 2014

  Actual Average Record
Temperature  
Mean Temperature 54 °F -  
Max Temperature 57 °F 62 °F 85 °F (1957)
Min Temperature 52 °F 50 °F 41 °F (1963)
Degree Days  
Heating Degree Days 10    
Growing Degree Days 4 (Base 50)    
Moisture  
Dew Point 53 °F    
Average Humidity 93    
Maximum Humidity 97    
Minimum Humidity 74    
Precipitation  
Precipitation 1.55 in - - ()
Sea Level Pressure  
Sea Level Pressure 29.59 in    
Wind  
Wind Speed 2 mph (SSE)    
Max Wind Speed 7 mph    
Max Gust Speed -    
Visibility 6 miles    
Events Rain    
Averages and records for this station are not official NWS values.
T = Trace of Precipitation, MM = Missing Value Source: NWS Daily Summary

Daily Weather History Graph

Daily Weather History Graph

Search for Another Location

Airport:

Trip Planner

Search our weather history database for the weather conditions in past years. The results will help you decide how hot, cold, wet, or windy it might be!

Date:

Astronomy

Aug. 08, 2014 Rise Set
Actual Time 5:54 AM AKDT 10:09 PM AKDT
Civil Twilight 4:59 AM AKDT 11:04 PM AKDT
Nautical Twilight 3:25 AM AKDT 12:35 AM AKDT
Astronomical Twilight Sun does not rise Sun does not rise
Moon 8:32 PM AKDT (8/8) 3:28 AM AKDT (8/8)
Length of Visible Light 18h 05m
Length of Day
16h 14m
Waxing Gibbous, 94% of the Moon is Illuminated
Aug 8
Waxing Gibbous
Aug 10
Full
Aug 17
Last Quarter
Aug 25
New
Sep 2
First Quarter

Hourly Weather History & Observations

Time (AKDT) Temp. Dew Point Humidity Pressure Visibility Wind Dir Wind Speed Gust Speed Precip Events Conditions
12:10 AM 57.0 °F 48.9 °F 74% 29.67 in 10.0 mi South 4.6 mph - 0.01 in Rain Light Rain
12:53 AM 55.9 °F 50.0 °F 80% 29.67 in 10.0 mi North - - 0.01 in Rain Light Rain
1:53 AM 54.0 °F 51.1 °F 90% 29.66 in 10.0 mi North - - 0.02 in Rain Light Rain
2:53 AM 54.0 °F 52.0 °F 93% 29.65 in 9.0 mi Calm Calm - 0.02 in Rain Light Rain
3:53 AM 53.1 °F 51.1 °F 93% 29.62 in 8.0 mi Calm Calm - 0.02 in Rain Light Rain
4:53 AM 52.0 °F 51.1 °F 97% 29.62 in 6.0 mi Calm Calm - 0.02 in Rain Light Rain
5:11 AM 52.0 °F 50.0 °F 93% 29.61 in 8.0 mi Calm Calm - 0.01 in Rain Light Rain
5:53 AM 53.1 °F 51.1 °F 93% 29.60 in 7.0 mi WNW 3.5 mph - 0.07 in Rain Light Rain
6:53 AM 52.0 °F 51.1 °F 97% 29.58 in 7.0 mi Calm Calm - 0.04 in Rain Light Rain
7:32 AM 53.1 °F 51.1 °F 93% 29.57 in 4.0 mi Calm Calm - 0.03 in Rain Light Rain
7:53 AM 53.1 °F 51.1 °F 93% 29.57 in 5.0 mi Calm Calm - 0.06 in Rain Light Rain
8:53 AM 53.1 °F 52.0 °F 96% 29.57 in 5.0 mi Calm Calm - 0.09 in Rain Light Rain
9:53 AM 54.0 °F 52.0 °F 93% 29.57 in 4.0 mi SSW 4.6 mph - 0.04 in Rain Rain
10:53 AM 54.0 °F 53.1 °F 97% 29.58 in 3.0 mi Variable 3.5 mph - 0.10 in Rain Rain
11:53 AM 55.0 °F 53.1 °F 93% 29.58 in 3.0 mi South 4.6 mph - 0.14 in Rain Rain
12:53 PM 55.9 °F 55.0 °F 97% 29.59 in 4.0 mi Calm Calm - 0.11 in Rain Rain
1:53 PM 57.0 °F 54.0 °F 89% 29.59 in 5.0 mi South 3.5 mph - 0.12 in Rain Rain
2:53 PM 57.0 °F 54.0 °F 89% 29.59 in 5.0 mi SE 5.8 mph - 0.10 in Rain Light Rain
3:53 PM 57.0 °F 55.0 °F 93% 29.58 in 4.0 mi SSE 5.8 mph - 0.09 in Rain Rain
4:53 PM 57.0 °F 55.0 °F 93% 29.57 in 5.0 mi SSE 3.5 mph - 0.10 in Rain Rain
5:53 PM 57.0 °F 55.0 °F 93% 29.55 in 9.0 mi Calm Calm - 0.06 in Rain Light Rain
6:10 PM 57.0 °F 55.0 °F 93% 29.55 in 8.0 mi Calm Calm - 0.01 in Rain Light Rain
6:53 PM 57.0 °F 55.0 °F 93% 29.55 in 6.0 mi South 4.6 mph - 0.04 in Rain Light Rain
7:21 PM 55.0 °F 54.0 °F 96% 29.55 in 2.5 mi South 3.5 mph - 0.03 in Rain Light Rain
7:30 PM 54.0 °F 53.1 °F 97% 29.55 in 1.5 mi SSE 5.8 mph - 0.04 in Rain Rain
7:45 PM 54.0 °F 53.1 °F 97% 29.55 in 3.0 mi South 4.6 mph - 0.06 in Rain Rain
7:53 PM 54.0 °F 53.1 °F 97% 29.56 in 4.0 mi SE 6.9 mph - 0.07 in Rain Light Rain
8:53 PM 55.0 °F 54.0 °F 96% 29.56 in 4.0 mi Calm Calm - 0.08 in Rain Rain
9:53 PM 55.0 °F 52.0 °F 89% 29.57 in 6.0 mi ESE 3.5 mph - 0.07 in Rain Light Rain
10:53 PM 55.0 °F 52.0 °F 89% 29.57 in 10.0 mi East 4.6 mph - 0.04 in Rain Light Rain
11:53 PM 54.0 °F 53.1 °F 97% 29.57 in 7.0 mi North - - 0.04 in Rain Light Rain